sat.trackr.live / text

‹ back to catalog

STARLINK-35698

NORAD 66481 · 2025-262AB

PAYLOAD ACTIVE UNKNOWN

§ Identity

Operator
Country
US
Launch date
2025-11-15
Launch site
AFETR
Launch vehicle
Mass (kg)
RCS (m²)

Purposes: comms

External: N2YO · Heavens-Above · Gunter

§ Orbital elements

Epoch: 2026-09-20T02:29:18.332160Z

Period
94.27 min
Inclination
43.0022°
Eccentricity
0.0001421
Mean motion
15.27580372 rev/d
Perigee alt
482.1 km
Apogee alt
484.0 km
Semi-major
6,861.2 km
B*
3.4880e-4
RAAN
277.8597°
Arg perigee
264.1507°
Mean anomaly
95.9183°
Rev number
4,864

§ Raw data

STARLINK-356981 66481U 25262AB  26263.10368440  .00009348  00000+0  34880-3 0  99962 66481  43.0022 277.8597 0001421 264.1507  95.9183 15.27580372 48643

JSON: /api/v1/satellites/66481 · /tle

For live sub-satellite position, see the globe view (requires WebGL).

§ Visibility from observer

Set your observer location to see the next 7 days of passes ≥ 10°. The values pass through the URL so the page stays shareable.

No JS? Fill the form by hand. The geolocation button needs JavaScript.